User: anonymous   Login
Location: Pine Mountain Observatory
(43.7910°N, 120.9377°W)
Time: 20:55:00
(UTC-07:00)
Language:

S-56A Canister/Altair - Orbit

View from above orbital plane
View from above orbital plane
View from above satellite
View from above satellite

Ground track
Ground track

The orbit data is extracted from the following two-line orbital elements,

1    82U 61004B   19143.33094346 -.00000006 +00000-0 +37761-4 0  9996
2    82 038.8560 206.6203 1174801 355.8518 003.3092 12.26034130759806
Epoch (UTC): 23 May 2019 07:56:33
Eccentricity: 0.1174801
inclination: 38.8560°
perigee height: 633 km
apogee height: 2499 km
right ascension of ascending node: 206.6203°
argument of perigee: 355.8518°
revolutions per day: 12.26034130
mean anomaly at epoch: 3.3092°
orbit number at epoch: 75980

The dashed part of the orbit path shows where the satellite is in the earth's shadow,  

DLR